GW4212 Weather Reports


time (UTC)temp
C
wind
direction
speed
KPH
gust
KPH
rain 1hr
cm
rain 24hr
cm
rain mn
cm
humidity
%
barometer
mb
20260510190425 18 0.0 0.0 0.00 0.00 0.00 99 1012.4
20260510185413 18 0.0 0.0 0.00 0.00 0.00 99 1012.3
20260510184302 18 0.0 0.0 0.00 0.00 0.00 99 1012.2
20260510183251 18 0.0 0.0 0.00 0.00 0.00 99 1012.2
20260510182241 19 0.0 0.0 0.00 0.00 0.00 99 1012.4
20260510181226 19 0.0 0.0 0.00 0.00 0.00 99 1012.3
20260510180215 19 0.0 0.0 0.00 0.00 0.00 99 1012.2
20260510175146 19 0.0 0.0 0.00 0.00 0.00 99 1012.2
20260510174135 19 0.0 0.0 0.00 0.00 0.00 99 1012.1
20260510173124 19 0.0 0.0 0.00 0.00 0.00 99 1012.1
20260510172118 20 0.0 0.0 0.00 0.00 0.00 99 1012.0
20260510171044 19 0.0 0.0 0.00 0.00 0.00 99 1011.8
20260510170034 20 0.0 0.0 0.00 0.00 0.00 99 1011.9
20260510165021 20 0.0 0.0 0.00 0.00 0.00 99 1011.9
20260510164012 20 0.0 0.0 0.00 0.00 0.00 99 1011.9
20260510162958 20 0.0 0.0 0.00 0.00 0.00 99 1012.1
20260510161952 20 0.0 0.0 0.00 0.00 0.00 99 1012.3
20260510160920 20 0.0 0.0 0.00 0.00 0.00 99 1012.3
20260510155852 20 0.0 0.0 0.00 0.00 0.00 99 1012.5
20260510154841 21 0.0 0.0 0.00 0.00 0.00 99 1012.5
20260510153830 20 0.0 0.0 0.00 0.00 0.00 99 1012.5
20260510152802 20 0.0 0.0 0.00 0.00 0.00 99 1012.6
20260510151756 20 0.0 0.0 0.00 0.00 0.00 99 1012.7
20260510150740 20 0.0 0.0 0.00 0.00 0.00 99 1012.6
20260510145730 21 0.0 0.0 0.00 0.00 0.00 99 1012.6
20260510144718 21 0.0 0.0 0.00 0.00 0.00 99 1012.8
20260510143708 21 0.0 0.0 0.00 0.00 0.00 99 1012.8
20260510142655 21 0.0 0.0 0.00 0.00 0.00 99 1012.9
20260510141650 21 0.0 0.0 0.00 0.00 0.00 99 1013.0
20260510140620 21 0.0 0.0 0.00 0.00 0.00 99 1013.2
20260510135541 22 0.0 0.0 0.00 0.00 0.00 99 1013.3
20260510134513 21 0.0 0.0 0.00 0.00 0.00 99 1013.6
20260510133356 21 0.0 0.0 0.00 0.00 0.00 99 1013.8
20260510132329 21 0.0 0.0 0.00 0.00 0.00 99 1013.9
20260510131322 20 0.0 0.0 0.00 0.00 0.00 99 1014.1
20260510130310 20 0.0 0.0 0.00 0.00 0.00 99 1014.2
20260510124245 22 0.0 0.0 0.00 0.00 0.00 99 1014.5
20260510123128 22 0.0 0.0 0.00 0.00 0.00 99 1014.6
20260510122116 22 0.0 0.0 0.00 0.00 0.00 99 1014.6
20260510121111 20 0.0 0.0 0.00 0.00 0.00 99 1014.7
20260510120055 21 0.0 0.0 0.00 0.00 0.00 99 1014.6
20260510115026 22 0.0 0.0 0.00 0.00 0.00 99 1014.6
20260510114014 22 0.0 0.0 0.00 0.00 0.00 99 1014.7
20260510113002 22 0.0 0.0 0.00 0.00 0.00 99 1014.8
20260510111952 21 0.0 0.0 0.00 0.00 0.00 99 1014.9
20260510110946 23 0.0 0.0 0.00 0.00 0.00 99 1014.9
20260510105929 24 0.0 0.0 0.00 0.00 0.00 99 1014.9
20260510104917 25 0.0 0.0 0.00 0.00 0.00 99 1015.0
20260510103907 25 0.0 0.0 0.00 0.00 0.00 99 1015.2
20260510102854 26 0.0 0.0 0.00 0.00 0.00 99 1015.2
20260510101843 25 0.0 0.0 0.00 0.00 0.00 99 1015.3
20260510100837 25 0.0 0.0 0.00 0.00 0.00 99 1015.4
20260510095819 25 0.0 0.0 0.00 0.00 0.00 99 1015.4
20260510094808 26 0.0 0.0 0.00 0.00 0.00 99 1015.3
20260510093757 25 0.0 0.0 0.00 0.00 0.00 99 1015.4
20260510092745 25 0.0 0.0 0.00 0.00 0.00 99 1015.5
20260510091734 26 0.0 0.0 0.00 0.00 0.00 99 1015.4
20260510090726 27 0.0 0.0 0.00 0.00 0.00 94 1015.5
20260510085709 28 0.0 0.0 0.00 0.00 0.00 91 1015.2
20260510084658 28 0.0 0.0 0.00 0.00 0.00 89 1015.3
20260510083647 28 0.0 0.0 0.00 0.00 0.00 90 1015.3
20260510082636 28 0.0 0.0 0.00 0.00 0.00 85 1015.2
20260510081625 28 0.0 0.0 0.00 0.00 0.00 88 1015.1
20260510080619 28 0.0 0.0 0.00 0.00 0.00 84 1015.1
20260510075602 27 0.0 0.0 0.00 0.00 0.00 92 1015.4
20260510074534 28 0.0 0.0 0.00 0.00 0.00 94 1015.5
20260510073522 28 0.0 0.0 0.00 0.00 0.00 98 1015.5
20260510072512 28 0.0 0.0 0.00 0.00 0.00 96 1015.5
20260510071500 28 0.0 0.0 0.00 0.00 0.00 94 1015.5
20260510070455 30 0.0 0.0 0.00 0.00 0.00 90 1015.5
20260510065438 30 0.0 0.0 0.00 0.00 0.00 90 1015.4
20260510064325 30 0.0 0.0 0.00 0.00 0.00 86 1015.4
20260510063314 32 0.0 0.0 0.00 0.00 0.00 85 1015.2
20260510062306 32 0.0 0.0 0.00 0.00 0.00 86 1015.1
20260510061252 30 0.0 0.0 0.00 0.00 0.00 98 1015.1
20260510060246 22 0.0 0.0 0.00 0.00 0.00 99 1015.2
20260510055230 26 0.0 0.0 0.00 0.00 0.00 99 1015.1
20260510054219 25 0.0 0.0 0.00 0.00 0.00 99 1015.0
20260510053106 19 0.0 0.0 0.00 0.00 0.00 99 1015.1
20260510052055 16 0.0 0.0 0.00 0.00 0.00 99 1015.1
20260510051044 16 0.0 0.0 0.00 0.00 0.00 99 1015.1
20260510050039 16 0.0 0.0 0.00 0.00 0.00 99 1015.1
20260510045022 16 0.0 0.0 0.00 0.00 0.00 99 1015.1
20260510044010 16 0.0 0.0 0.00 0.00 0.00 99 1015.0
20260510042958 16 0.0 0.0 0.00 0.00 0.00 99 1014.9
20260510041947 15 0.0 0.0 0.00 0.00 0.00 99 1014.9
20260510040936 15 0.0 0.0 0.00 0.00 0.00 99 1015.0
20260510035928 15 0.0 0.0 0.00 0.00 0.00 99 1014.9
20260510034856 15 0.0 0.0 0.00 0.00 0.00 99 1014.9
20260510033844 15 0.0 0.0 0.00 0.00 0.00 99 1014.9
20260510032832 15 0.0 0.0 0.00 0.00 0.00 99 1014.8
20260510031821 15 0.0 0.0 0.00 0.00 0.00 99 1014.7
20260510030811 15 0.0 0.0 0.00 0.00 0.00 99 1014.8
20260510025814 15 0.0 0.0 0.00 0.00 0.00 99 1014.8
20260510021619 15 0.0 0.0 0.00 0.00 0.00 99 1014.6
20260510020609 15 0.0 0.0 0.00 0.00 0.00 99 1014.6
20260510015557 15 0.0 0.0 0.00 0.00 0.00 99 1014.6
20260510014545 15 0.0 0.0 0.00 0.00 0.00 99 1014.5
20260510013539 16 0.0 0.0 0.00 0.00 0.00 99 1014.6
20260510012524 16 0.0 0.0 0.00 0.00 0.00 99 1014.7
20260510011512 16 0.0 0.0 0.00 0.00 0.00 99 1014.8
20260510010501 16 0.0 0.0 0.00 0.00 0.00 99 1014.8
20260510005449 16 0.0 0.0 0.00 0.00 0.00 99 1014.8
20260510004437 16 0.0 0.0 0.00 0.00 0.00 99 1015.0
20260510003329 16 0.0 0.0 0.00 0.00 0.00 99 1015.0
20260510002314 16 0.0 0.0 0.00 0.00 0.00 99 1015.1
20260510001302 16 0.0 0.0 0.00 0.00 0.00 99 1015.3
20260510000251 16 0.0 0.0 0.00 0.00 0.00 99 1015.5
20260509235240 16 0.0 0.0 0.00 0.00 0.00 99 1015.5
20260509234229 16 0.0 0.0 0.00 0.00 0.00 99 1015.5
20260509233221 16 0.0 0.0 0.00 0.00 0.00 99 1015.5
20260509232206 16 0.0 0.0 0.00 0.00 0.00 99 1015.5
20260509230947 16 0.0 0.0 0.00 0.00 0.00 99 1015.4
20260509225936 16 0.0 0.0 0.00 0.00 0.00 99 1015.4
20260509224924 16 0.0 0.0 0.00 0.00 0.00 99 1015.4
20260509223913 16 0.0 0.0 0.00 0.00 0.00 99 1015.5
20260509222905 16 0.0 0.0 0.00 0.00 0.00 99 1015.5
20260509221850 16 0.0 0.0 0.00 0.00 0.00 99 1015.4
20260509220839 16 0.0 0.0 0.00 0.00 0.00 99 1015.5
20260509215827 16 0.0 0.0 0.00 0.00 0.00 99 1015.5
20260509214815 16 0.0 0.0 0.00 0.00 0.00 99 1015.5
20260509213803 16 0.0 0.0 0.00 0.00 0.00 99 1015.3
20260509212759 16 0.0 0.0 0.00 0.00 0.00 99 1015.3
20260509211741 16 0.0 0.0 0.00 0.00 0.00 99 1015.2
20260509210632 16 0.0 0.0 0.00 0.00 0.00 99 1015.4
20260509205617 16 0.0 0.0 0.00 0.00 0.00 99 1015.3
20260509204606 16 0.0 0.0 0.00 0.00 0.00 99 1015.4
20260509203555 16 0.0 0.0 0.00 0.00 0.00 99 1015.4
20260509202548 16 0.0 0.0 0.00 0.00 0.00 99 1015.1
20260509201425 16 0.0 0.0 0.00 0.00 0.00 99 1014.8
20260509200413 16 0.0 0.0 0.00 0.00 0.00 99 1014.7
20260509195402 16 0.0 0.0 0.00 0.00 0.00 99 1014.6
20260509194333 16 0.0 0.0 0.00 0.00 0.00 99 1014.5
20260509193322 16 0.0 0.0 0.00 0.00 0.00 99 1014.4
20260509192316 16 0.0 0.0 0.00 0.00 0.00 99 1014.3
20260509191300 16 0.0 0.0 0.00 0.00 0.00 99 1014.1